map of DUE home
DUE - Airport
Location
City:  Dundo, Lunda Norte, Angola
ICAO:FNDU
IATA:DUE

Details
Type:Airport (Aerodrome, Airfield)
Latitude:724'03"S (-7.400891)
Longitude:2049'07"E (20.818481)
Datum:other
Elevation:2451 ft (747 m)
Variation:0.81W (WMM2015 magnetic declination)
0.13 annual change
Runways:1
Longest:6468 × 80 ft (1971 × 24.5 m), paved

Time
Time Zone:UTC+1
Local Time:

Weather
METAR:FNDU 130500Z 00000KT 7000 // BKN004 19/17 Q1021
TAF:FNDU 122320Z 1300/1312 30005KT 9000 FEW023 SCT040
TEMPO 1303/1307 25006KT 6000 -TSRA SCT015 FEW025CB BKN026
BECMG 1310/1312 VRB03KT

Related Locations
Nearby:
Farthest:TNQ: 12229 mi / 19681 km
Teraina (Teeraina, Washington Island), L, KI

Find:

   beyond  
but within

Other Information
Maps:
NOTAMs:
Links:
Sources:

  
  • flag of Angola
  

Sectional Chart

Flight Planning
at skyvector.com

Satellite Image

Google Maps Satellite view

 

Copyright © 2004-2018 Karl L. Swartz. All rights reserved.
The Great Circle Mapper name and logo are trademarks of the Great Circle Mapper.
All other trademarks mentioned herein belong to their respective owners.
Please see credits for attibutions and further copyright information.

  Follow gcmap on Facebook Follow gcmap on Twitter Follow gcmap on Google+ GCmap on LinkedIn

hCard Microformat

Geo Microformat